Elat, Israel

7:23 AM IST on February 20, 2017 (GMT +0200)
Eilat

Weather History for LLET - January, 2013

Change the Weather History Date:

Wednesday, January 9, 2013

  Actual Average Record
Temperature  
Mean Temperature 56 °F -  
Max Temperature 60 °F 69 °F 82 °F (1997)
Min Temperature 52 °F 52 °F 46 °F (2008)
Degree Days  
Heating Degree Days 9    
Growing Degree Days 6 (Base 50)    
Moisture  
Dew Point 36 °F    
Average Humidity 46    
Maximum Humidity 59    
Minimum Humidity 22    
Precipitation  
Precipitation 0.00 in 0.01 in - ()
Sea Level Pressure  
Sea Level Pressure 30.04 in    
Wind  
Wind Speed 6 mph ()    
Max Wind Speed 13 mph    
Max Gust Speed 24 mph    
Visibility 6.9 miles    
Events      
Averages and records for this station are not official NWS values.
T = Trace of Precipitation, MM = Missing Value Source: Averaged Metar Reports

Daily Weather History Graph

Daily Weather History Graph

Search for Another Location

Airport or City:

Trip Planner

Search our weather history database for the weather conditions in past years. The results will help you decide how hot, cold, wet, or windy it might be!

Date:

Astronomy

Jan. 09, 2013 Rise Set
Actual Time 6:36 AM IST 4:58 PM IST
Civil Twilight 6:10 AM IST 5:24 PM IST
Nautical Twilight 5:40 AM IST 5:54 PM IST
Astronomical Twilight 5:11 AM IST 6:22 PM IST
Moon 3:53 AM IST (1/9) 2:39 PM IST (1/9)
Length of Visible Light 11h 14m
Length of Day
10h 22m
Waning Crescent, 8% of the Moon is Illuminated
Jan 9
Waning Crescent
Jan 11
New
Jan 19
First Quarter
Jan 27
Full
Feb 3
Last Quarter

Hourly Weather History & Observations

Time (IST) Temp. Dew Point Humidity Pressure Visibility Wind Dir Wind Speed Gust Speed Precip Events Conditions
2:00 AM 62 °F 38 °F 30%  in 9 mi West 5.8 mph - -   Partly Cloudy
5:50 AM 57.2 °F 42.8 °F 59% 29.92 in 6.2 mi WNW 9.2 mph 20.7 mph N/A   Mostly Cloudy
6:50 AM 55.4 °F 41.0 °F 58% 29.95 in 6.2 mi NW 6.9 mph - N/A   Mostly Cloudy
7:50 AM 55.4 °F 41.0 °F 58% 29.98 in 6.2 mi North 9.2 mph - N/A   Mostly Cloudy
8:50 AM 55.4 °F 41.0 °F 58% 30.01 in 6.2 mi NNE 10.4 mph - N/A   Mostly Cloudy
9:50 AM 55.4 °F 37.4 °F 51% 30.04 in 6.2 mi NNW 6.9 mph - N/A   Mostly Cloudy
10:50 AM 55.4 °F 37.4 °F 51% 30.04 in 6.2 mi NNW 12.7 mph 24.2 mph N/A   Mostly Cloudy
11:50 AM 57.2 °F 33.8 °F 41% 30.01 in 6.2 mi SE 6.9 mph 18.4 mph N/A   Mostly Cloudy
12:50 PM 57.2 °F 32.0 °F 38% 30.01 in 6.2 mi SSE 3.5 mph - N/A   Mostly Cloudy
1:50 PM 59.0 °F 33.8 °F 39% 30.01 in 6.2 mi WNW 10.4 mph - N/A   Mostly Cloudy
2:00 PM 60 °F 31 °F 22% 30.02 in 16 mi WNW 8.1 mph - -   Partly Cloudy
2:50 PM 59.0 °F 32.0 °F 36% 30.01 in 6.2 mi West 8.1 mph - N/A   Mostly Cloudy
3:50 PM 55.4 °F 35.6 °F 47% 30.04 in 6.2 mi NW 11.5 mph - N/A   Scattered Clouds
4:50 PM 55.4 °F 33.8 °F 44% 30.06 in 6.2 mi NW 6.9 mph - N/A   Mostly Cloudy
5:50 PM 53.6 °F 33.8 °F 47% 30.06 in 6.2 mi WNW 4.6 mph - N/A   Mostly Cloudy
6:50 PM 53.6 °F 33.8 °F 47% 30.09 in 6.2 mi NW 4.6 mph - N/A   Scattered Clouds
7:50 PM 53.6 °F 35.6 °F 51% 30.09 in 6.2 mi SW 3.5 mph - N/A   Scattered Clouds
8:00 PM 52 °F 34 °F 37% 30.12 in - SW 3.5 mph - -  
8:50 PM 53.6 °F 35.6 °F 51% 30.12 in 6.2 mi SW 3.5 mph - N/A   Mostly Cloudy
9:50 PM 53.6 °F 35.6 °F 51% 30.12 in 6.2 mi NNW 2.3 mph - N/A   Mostly Cloudy